Regional Weather Roundup
Issued by NWS Grand Forks, ND

Home | Current Version | Previous Version | Graphics & Text | Print | Product List | Glossary On
Versions: 1 2 3 4 5 6 7 8 9 10 11 12 13 14 15 16 17 18 19 20 21 22 23 24 25 26 27 28 29 30 31 32 33 34 35 36 37 38 39 40 41 42 43 44 45 46 47 48 49 50
000
ASUS43 KFGF 192231
RWRFGF
PRAIRIE TO PINES  WEATHER ROUNDUP
NATIONAL WEATHER SERVICE EASTERN NORTH DAKOTA/GRAND FORKS ND
400 PM CST SUN FEB 19 2017

 **SATELLITE DATA USED TO AUGMENT SKY COVER AT AUTOMATED STATIONS**
 *****  WEATHER ACROSS EASTERN NORTH DAKOTA  *****

CITY           SKY/WX    TMP DP  RH WIND       PRES   REMARKS
GRAND FORKS    PTSUNNY   44  33  65 E16       29.62F
GRAND FRKS AFB FAIR      42  36  80 SE14      29.61F
DEVILS LAKE    FAIR      40  37  89 SE15      29.55S
FARGO          FAIR      55  44  66 SE21G30   29.61F
WAHPETON ARPT  FAIR      54  45  71 SE17G25   29.64S
$$

 ***** WEATHER ACROSS CENTRAL AND WESTERN NORTH DAKOTA  *****

CITY           SKY/WX    TMP DP  RH WIND       PRES   REMARKS
BISMARCK       FAIR      40  35  83 SE10      29.50S
MINOT          PTSUNNY   40  35  83 E10       29.51R
JAMESTOWN      FAIR      46  42  86 SE20      29.52F
MINOT AFB      FAIR      35  33  90 E8        29.49F
GARRISON         N/A     40  34  79 SE8       29.49R
WILLISTON      FAIR      38  32  79 E3        29.49R
DICKINSON      FAIR      51  38  60 SE8       29.43R
HETTINGER      FAIR      63  37  38 S9        29.44F
$$

 *****  OTHER AIRPORT OBSERVATIONS IN OUR AREA  *****

CITY           SKY/WX    TMP DP  RH WIND       PRES   REMARKS
WALHALLA       NOT AVBL
GRAFTON AIRPOR FAIR      39  36  87 E13       29.65F
VALLEY CITY AR FAIR      48  48 100 SE13      29.59S
CANDO          NOT AVBL
CAVALIER APRT  FAIR      39  32  75 SE8       29.65F
GWINNER        FAIR      55  50  82 SE15      29.59F
SHEYENNE NWR     N/A     57  47  69 S14       29.95S
ROLLA          FAIR      36  36 100 E9        29.60R
 ***** THE ABOVE OBSERVATIONS ARE NON NWS ARE NOT QUALITY
       CONTROLLED AND MAY MIS-REPORT RAIN FOR SNOW...
$$

  *****  WEATHER ACROSS NORTHERN MINNESOTA  *****

CITY           SKY/WX    TMP DP  RH WIND       PRES   REMARKS
FLAG ISLAND    FAIR      43  28  56 E8G17     29.81F
WARROAD        FAIR      39  34  81 E13       29.79F
ROSEAU         FAIR      41  34  75 E13       29.76F
HALLOCK        FAIR      43  34  70 E21G28    29.65F
THF RVR FALLS  FAIR      42  33  70 E16       29.70F
BAUDETTE       FAIR      42  30  62 E14       29.81F
WASKISH        FAIR      52  30  43 SE12G18   29.80S
CROOKSTON      FAIR      46  37  71 SE14      29.65F
STEPHEN NDAWN    N/A     41  34  75 E14         N/A
GREENBUSH NDAW   N/A     39  32  75 E12         N/A
$$
  *****  WEATHER ACROSS CENTRAL AND WEST MINNESOTA  *****

CITY           SKY/WX    TMP DP  RH WIND       PRES   REMARKS
FOSSTON        FAIR      46  34  61 SE18      29.70S
BEMIDJI        FAIR      46  32  58 SE14      29.77F
PARK RAPIDS    FAIR      50  32  50 SE10      29.76S
ELBOW LAKE     FAIR      53  46  75 SE16G24   29.69F
WADENA         FAIR      48  39  71 SE18      29.74F
DETROIT LAKES  FAIR      50  37  62 SE16G24   29.70F
MOORHEAD       FAIR      54  45  71 SE17G24   29.63F
FERGUS FALLS   FAIR      55  45  67 SE22G28   29.70F
MORRIS MN      FAIR      55  50  82 SE23      29.67F
STAPLES        FAIR      52  36  54 SE12G17   29.78S
$$
  *****  WEATHER ELSEWHERE ACROSS MINNESOTA  *****

CITY           SKY/WX    TMP DP  RH WIND       PRES   REMARKS
DULUTH         FAIR      42  31  64 E10       29.93F
INTRNTL FALLS  LGT RAIN  44  30  57 E12       29.87F
ELY            FAIR      45  28  53 SE13      29.94F
CLOQUET        FAIR      39  28  65 E10G16    29.92F
WHEATON        FAIR      55  48  76 SE22      29.65F
BRAINERD       FAIR      51  35  54 SE10      29.82F
HIBBING        FAIR      46  28  49 SE14      29.89F
ALEXANDRIA     FAIR      53  44  71 SE20      29.75F
SAINT CLOUD    FAIR      57  41  55 SE10      29.83R
MINNEAPOLIS    CLOUDY    59  40  49 SE15      29.88S
$$

  *****  WEATHER ACROSS SOUTH DAKOTA  *****

CITY           SKY/WX    TMP DP  RH WIND       PRES   REMARKS
SIOUX FALLS    CLOUDY    62  51  67 S21G30    29.70S
BROOKINGS      FAIR      60  48  64 S23       29.65F
WATERTOWN      FAIR      57  50  77 S16       29.64R
HURON          FAIR      62  50  64 S20G26    29.58S
SISSETON         N/A     58  51  78 S21       29.60F
ABERDEEN       FAIR      58  47  66 S14       29.56S
MITCHELL       FAIR      63  51  65 S29G37    29.60F
PIERRE         FAIR      67  38  34 S13       29.49S
MOBRIDGE       FAIR      46  38  73 SE10      29.47F
RAPID CITY     FAIR      69  32  25 SW20      29.47F
$$

  *****  SOME WEATHER IN NEARBY STATES *****

CITY           SKY/WX    TMP DP  RH WIND       PRES   REMARKS
GLASGOW MT     CLOUDY    35  33  92 E6        29.48R FOG
GREAT FALLS MT FAIR      50  22  33 SW20G26   29.48R
CHEYENNE WY    FAIR      56  23  27 SE8       29.60F
SCOTTSBLUFF NE FAIR      59  33  37 E9        29.57F
OMAHA NE       CLOUDY    71  50  47 S18       29.79F
DES MOINES IA  CLOUDY    72  47  40 S17G24    29.88F
DAVENPORT IA   FAIR      70  38  31 S9        29.98S
CHICAGO IL     FAIR      65  32  29 E10       30.04S
EAU CLAIRE WI  FAIR      58  31  35 SE6       29.95S
LA CROSSE WI   FAIR      63  34  33 SE13      29.95F
$$

  *****  SOME NATIONAL WEATHER *****

CITY           SKY/WX    TMP DP  RH WIND       PRES   REMARKS
LA GUARDIA NY  FAIR      61  31  32 NW12      29.83R
RALEIGH NC     FAIR      70  42  36 NW6       29.98R
ATLANTA GA     FAIR      67  47  48 NW13G22   30.08S
NEW ORLEANS LA PTSUNNY   76  67  73 S12       30.03S
OKLAHOMA CITY  PTSUNNY   69  60  73 SE23      29.83F
ALBUQUERQUE NM PTSUNNY   52  26  36 SW12      29.84R
SALT LAKE CITY PTSUNNY   49  39  68 SE6       29.72R
LOS ANGELES CA FAIR      58  51  78 W9        29.98S
BOISE ID       FAIR      45  40  82 NW17      29.67R
SEATTLE WA     LGT RAIN  45  39  79 S10       29.49S
$$

*** WEATHER ACROSS MANITOBA...SASKATCHEWAN AND ONTARIO ***
                ***ONTARIO***

CITY           SKY/WX    TMP DP  RH WIND       PRES   REMARKS
GERALDTON      PTSUNNY   37  25  60 N2        30.08R
THUNDER BAY    PTSUNNY   36  30  80 E9        30.07R
SIOUX LOOKOUT  PTSUNNY   43  27  52 SE5       29.98R
TORONTO        PTCLDY    46  32  57 N16       29.98R
BIG TROUT LK   CLOUDY    25  21  86 E5        30.08S WCI  19
PICKLE LAKE    CLOUDY    30  23  74 E5        30.05R
DRYDEN         CLOUDY    41  30  65 E7        29.93F
KENORA         PTSUNNY   39  30  70 E13       29.85F
$$
                *** MANITOBA***

CITY           SKY/WX    TMP DP  RH WIND       PRES   REMARKS
BRANDON        PTSUNNY   32  30  93 E26G33    29.63S WCI  18
DAUPHIN        CLOUDY    32  28  86 E14G23    29.73F WCI  22
ISLAND LAKE    CLOUDY    25  18  74 E3        30.01F
PILOT MOUND      N/A     36  32  87 E13         N/A
THE PAS        CLOUDY    28  19  69 E15G24    29.84F WCI  17
THOMPSON       CLOUDY    21  16  79 E5        30.01R WCI  15
WINNIPEG       PTSUNNY   39  30  70 E14       29.73F
LYNN LAKE      CLOUDY    23  21  93 E7        29.92F WCI  15
CHURCHILL      FLURRIES  12   9  85 S8        30.10F WCI   1
GILLAM         CLOUDY    19  12  73 E3        30.06R
$$
                ***SASKATCHEWAN***

CITY           SKY/WX    TMP DP  RH WIND       PRES   REMARKS
ESTEVAN        CLOUDY    32  32 100 E18G25    29.50F FOG     WCI  20
KINDERSLEY     LGT RAIN  36  34  93 SE10      29.41R
LLOYDMINSTER   CLOUDY    34  30  86 SE16G23   29.42S WCI  23
PRINCE ALBERT  CLOUDY    34  27  75 E20G31    29.60F WCI  22
REGINA         CLOUDY    34  30  86 E18G24    29.52S WCI  23
YORKTON        CLOUDY    32  28  86 E18       29.62F WCI  20
N. BATTLEFORD  LGT RAIN  36  34  93 SE20      29.49S
LA RONGE       CLOUDY    30  25  80 E15       29.72F WCI  19
SASKATOON      CLOUDY    36  30  80 SE16      29.52R
SWIFT CURRENT  LGT RAIN  43  37  81 S8        29.42R
$$
NOTE: THESE ARE AUTOMATED STATIONS WITH LIMITED QUALITY CONTROL
      "FAIR" INDICATES FEW OR NO CLOUDS BELOW 12,000 FEET WITH NO
      SIGNIFICANT WEATHER AND/OR OBSTRUCTIONS TO VISIBILITY.
      SKY/WX - SKY CONDITION AND SIGNIFICANT WEATHER.
      TMP - AIR TEMPERATURE.    DP   - DEWPOINT TEMPERATURE.
      RH  - RELATIVE HUMIDITY.  PRES - PRESSURE.
      HX  - HEAT INDEX.         WCI  - WIND CHILL INDEX.
$




USA.gov is the U.S. government's official web portal to all federal, state and local government web resources and services.